Regional Weather Roundup
Issued by NWS

Home | Current Version | Previous Version | Text Only | Print | Product List | Glossary On
Versions: 1 2 3 4 5 6 7 8 9 10 11 12 13 14 15 16 17 18 19 20 21 22 23 24 25 26 27 28 29 30 31 32 33 34 35 36 37 38 39 40 41 42 43 44 45 46 47 48 49 50
000
ASUS43 KDMX 062108
RWRIA

WEATHER ROUNDUP FOR IOWA
NATIONAL WEATHER SERVICE DES MOINES IA
400 PM CDT FRI MAY 06 2016

NOTE: "FAIR" INDICATES FEW OR NO CLOUDS BELOW 12,000 FEET WITH NO
SIGNIFICANT WEATHER AND/OR OBSTRUCTIONS TO VISIBILITY.

* - THESE STATIONS ARE NOT NWS STATIONS...THUS NOT UNDER NWS
QUALITY CONTROL.  THEY ALSO DO NOT REPORT WEATHER SUCH
AS PRECIPITATION OR FOG.

IAZ001>003-012>014-020>022-031>034-043>046-062200-
   NORTHWEST IOWA

CITY           SKY/WX    TMP DP  RH WIND       PRES   REMARKS
CARROLL *      SUNNY     86  37  17 SW21G30   29.88F HX  83
CHEROKEE *     SUNNY     84  46  26 SW20G26   29.84F HX  82
DENISON *      SUNNY     86  45  23 SW21G26   29.86F HX  83
LE MARS *      SUNNY     88  48  25 SW20G25   29.84F HX  85
ORANGE CITY *  SUNNY     88  48  25 SW25      29.83F HX  85
SHELDON *      SUNNY     90  45  20 SW18G31   29.81F HX  86
SIOUX CITY     SUNNY     87  52  29 SW16G25   29.84F HX  85
SPENCER        SUNNY     88  45  22 SW21G33   29.83F HX  85
STORM LAKE *   SUNNY     86  45  23 SW28G35   29.86F HX  83
$$

IAZ055>058-069>071-079>083-090>094-062200-
   SOUTHWEST IOWA

CITY           SKY/WX    TMP DP  RH WIND       PRES   REMARKS
ATLANTIC *     SUNNY     84  39  20 SW21G28   29.91F HX  81
AUDUBON *        N/A     86  23  10 SW12G28   29.91F HX  82
CLARINDA *       N/A     84  45  24 MISG      29.94F HX  82
COUNCIL BLFS * SUNNY     84  43  23 SW10G23   29.91F HX  82
CRESTON *      SUNNY     82  48  30 SW14G23   29.95F HX  81
HARLAN  *      SUNNY     86  41  20 SW20G28   29.93F HX  83
LAMONI         SUNNY     80  52  37 SW16      29.95F HX  80
RED OAK *      SUNNY     84  43  23 SW20G26   29.92F HX  82
SHENANDOAH *   SUNNY     86  39  19 SW20G26   29.93F HX  83
$$

IAZ047>049-059>061-072>074-084-062200-
   CENTRAL IOWA

CITY           SKY/WX    TMP DP  RH WIND       PRES   REMARKS
AMES           SUNNY     87  38  17 W23       29.88F HX  84
ANKENY *       SUNNY     84  45  24 W14G22    29.89F HX  82
BOONE *        SUNNY     86  37  17 W24G32    29.88F HX  83
CHARITON *     SUNNY     82  50  32 SW14G21   29.93F HX  81
DES MOINES     MOSUNNY   86  43  22 SW20G25   29.90F HX  83
GRINNELL*      SUNNY     84  43  23 SW20G25   29.90F HX  82
KNOXVILLE *    SUNNY     84  48  28 SW15G21   29.90F HX  82
MARSHALLTOWN   SUNNY     85  43  22 SW24G30   29.86F HX  82
NEWTON *       SUNNY     86  45  23 SW20G28   29.89F HX  83
PERRY *          N/A     86  36  16 SW24      29.89F HX  83
$$

IAZ004>006-015-016-023>025-035-036-062200-
   NORTH CENTRAL IOWA

CITY           SKY/WX    TMP DP  RH WIND       PRES   REMARKS
ALGONA *       SUNNY     88  45  22 SW29G38   29.83F HX  84
CLARION *      SUNNY     88  37  16 SW28      29.85F HX  84
ESTHERVILLE    SUNNY     88  45  22 SW30G37   29.82F HX  85
FORT DODGE *   SUNNY     84  48  28 SW15G24   29.87F HX  82
MASON CITY     SUNNY     87  44  22 SW18G25   29.83F HX  84
FOREST CITY *  SUNNY     86  41  20 SW14G28   29.82F HX  83
WEBSTER CITY * SUNNY     88  36  15 SW26G33   29.84F HX  84
IOWA FALLS *     N/A     88  36  15 SW26G32   29.87F HX  84
$$

IAZ007>011-017>019-026>030-037>042-050>054-066-062200-
   NORTHEAST IOWA

CITY           SKY/WX    TMP DP  RH WIND       PRES   REMARKS
CEDAR RAPIDS   SUNNY     85  48  27 W17G28    29.86F HX  82
CHARLES CITY * SUNNY     90  28  11 SW23G32   29.83F HX  85
CLINTON *      SUNNY     86  49  27 W15G24    29.86F HX  83
DECORAH *      SUNNY     88  34  14 W10G23    29.81F HX  84
DUBUQUE        SUNNY     85  44  23 NW18      29.85F HX  82
MONTICELLO *   SUNNY     86  45  23 W17G25    29.84F HX  83
OELWEIN *      SUNNY     88  39  18 W23       29.84F HX  84
WATERLOO       SUNNY     87  39  18 W21G28    29.84F HX  84
$$

IAZ064-065-067-068-078-062200-
   EAST CENTRAL IOWA

CITY           SKY/WX    TMP DP  RH WIND       PRES   REMARKS
DAVENPORT      SUNNY     87  42  20 W17G25    29.88F HX  84
IOWA CITY      SUNNY     84  47  27 W18G24    29.89F HX  82
MT. PLEASANT * SUNNY     88  46  23 SW16      29.91F HX  85
MUSCATINE *    SUNNY     86  45  23 W17       29.88F HX  83
QUAD CITIES    SUNNY     86  46  24 W15G25    29.86F HX  83
$$

IAZ062-063-075>077-085>089-095>099-062200-
   SOUTHEAST IOWA

CITY           SKY/WX    TMP DP  RH WIND       PRES   REMARKS
BURLINGTON     SUNNY     83  50  31 W13G21    29.91F HX  81
FAIRFIELD *    SUNNY     84  46  26 W15G21    29.92F HX  82
FORT MADISON * SUNNY     82  48  30 W12       29.93F HX  81
KEOKUK *       SUNNY     82  48  30 W10G18    29.92F HX  81
OSKALOOSA *      N/A     84  46  26 SW21      29.91F HX  82
OTTUMWA        SUNNY     84  51  31 W16G24    29.92F HX  82
WASHINGTON *   SUNNY     84  46  26 W17       29.91F HX  82
$$

ABBREVIATIONS USED IN REMARKS
   TC - TEMPERATURES IN CELSIUS
  WCI - WIND CHILL INDEX
   HX - HEAT INDEX
  VSB - VISIBILITY
$$




USA.gov is the U.S. government's official web portal to all federal, state and local government web resources and services.